Wind_Speed
7 7 7 7 7 7 8 8 8 8 8 8 8 8 9 9 9 9 9 8 8 9 9 8 8 9 9 8 8 7 7 7 6 6 7 8 9 10 11 12 12 12 12 12 13 12 10 10 10 10 10 11 12 15 17 18 19 20 20 20 20 20 20 19 18 18 19 19 19 19 19 18 19 19
7 7 7 7 7 7 8 8 8 8 8 8 8 8 8 9 10 9 8 8 7 8 9 8 7 8 8 8 8 8 8 7 7 7 8 9 10 11 12 13 13 12 12 12 12 12 11 10 9 9 10 10 11 13 15 16 18 19 19 19 19 19 19 18 18 17 17 17 17 17 17 17 17 17
7 7 7 7 8 8 8 8 8 8 8 9 9 9 8 9 9 8 8 8 7 8 9 9 9 9 9 9 9 9 9 8 8 8 9 10 11 12 12 13 13 13 13 12 13 12 11 10 9 9 9 9 10 12 14 15 16 17 18 18 18 18 18 17 17 16 16 16 16 16 16 16 15 15
7 7 7 7 8 8 8 8 8 7 7 8 8 8 8 8 8 8 8 9 8 9 10 11 11 11 11 11 11 10 10 9 9 10 10 10 11 11 12 12 12 13 13 13 13 13 11 10 9 8 8 9 11 12 13 14 16 17 17 17 17 16 17 17 16 16 15 14 14 14 14 14 14 13
6 7 7 8 8 8 8 8 8 8 8 9 9 9 9 10 10 10 10 10 11 10 10 11 12 12 12 11 12 11 11 11 11 10 10 10 11 11 12 11 11 12 13 13 13 13 12 10 9 9 9 10 11 12 13 14 16 16 17 16 16 16 16 16 15 15 15 14 13 13 12 13 13 12
6 7 7 7 7 8 9 9 9 9 9 9 9 9 9 10 11 11 11 11 12 12 12 11 11 11 10 10 10 10 11 11 10 10 10 11 11 12 12 12 12 12 13 13 13 13 13 12 11 11 11 12 13 13 14 14 15 16 16 16 15 15 15 15 15 15 15 14 13 12 11 11 11 11
8 8 8 8 9 9 9 9 8 9 9 8 8 8 8 8 10 11 11 11 11 11 11 11 11 10 10 10 10 10 10 10 10 10 10 11 12 12 13 13 13 12 12 13 14 14 14 14 13 12 12 12 13 13 14 14 15 15 16 16 15 14 14 15 15 14 14 14 13 13 11 10 9 9
9 9 9 10 9 9 9 9 8 8 8 9 9 9 8 8 9 10 11 11 10 9 9 9 9 9 9 9 10 10 10 10 11 11 12 12 12 12 13 14 14 13 12 13 14 14 14 14 13 13 12 13 13 13 13 14 14 15 15 15 15 14 13 14 15 15 14 13 13 12 11 10 9 8
11 11 11 11 10 10 11 10 10 10 10 10 10 10 10 10 11 11 11 11 10 9 8 8 8 9 9 9 10 11 11 11 11 12 13 14 13 13 13 14 13 13 13 13 13 13 13 14 14 13 13 13 13 13 13 14 14 14 14 13 13 13 14 14 15 16 15 14 13 12 11 10 9 8
13 13 13 13 12 12 12 12 12 12 12 11 12 13 13 13 13 13 12 12 11 11 10 9 9 9 9 10 10 11 12 13 13 13 13 13 13 13 14 15 13 12 13 13 13 13 12 13 14 14 14 14 14 14 14 14 14 13 13 12 11 12 13 14 15 16 16 16 14 12 11 10 9 9
15 15 15 15 14 14 14 14 14 14 13 13 13 13 13 14 14 14 13 13 13 13 12 11 11 10 10 11 11 11 12 13 14 15 15 15 13 11 13 16 15 12 12 13 13 13 13 14 14 15 15 15 15 15 14 14 13 13 12 11 10 10 11 13 14 15 16 17 16 14 12 11 10 9
17 18 18 18 17 16 16 16 16 15 15 15 14 14 14 15 14 15 15 14 14 14 14 13 13 12 11 12 12 12 13 13 13 15 16 17 16 13 12 15 17 14 13 14 14 14 13 14 14 15 15 15 15 15 15 14 13 13 12 11 11 11 11 11 12 13 14 15 16 15 14 13 11 10
19 20 21 21 20 20 19 19 19 18 18 18 18 17 16 16 16 17 16 15 15 15 15 15 14 14 13 13 13 13 13 14 13 14 15 16 17 16 13 13 16 16 14 14 15 15 15 15 15 14 14 15 15 15 15 14 13 13 13 12 12 12 12 12 12 12 13 13 14 14 14 14 13 12
20 21 21 22 23 22 22 21 21 21 21 21 20 20 19 18 18 18 17 16 16 17 16 16 15 15 14 13 13 13 13 13 13 13 14 15 15 15 14 12 14 15 14 14 15 16 15 15 15 15 15 15 16 16 15 15 14 14 14 14 14 14 14 14 13 13 13 13 13 12 13 13 13 13
21 21 22 22 23 24 24 24 24 23 23 24 23 23 22 21 21 21 20 18 18 18 18 17 16 16 15 14 13 13 13 13 14 14 15 16 16 16 16 14 14 15 14 14 15 16 16 16 16 16 16 16 16 16 16 15 15 14 14 14 14 14 14 15 15 15 15 14 13 13 12 12 12 13
22 23 23 23 23 25 25 25 25 25 25 25 25 25 24 24 23 23 22 21 20 20 19 18 17 16 17 16 14 14 14 14 15 16 16 17 18 17 17 17 17 16 16 15 16 17 17 16 17 17 17 17 17 17 17 16 16 15 14 14 13 14 14 14 15 16 16 16 16 15 14 13 12 12
23 25 26 25 25 26 27 27 27 27 28 28 27 27 26 26 25 24 24 23 23 22 21 20 19 17 17 17 16 16 16 17 17 17 17 17 18 18 17 18 18 19 19 17 17 17 18 17 17 18 18 17 17 17 17 17 17 17 16 16 15 15 15 15 16 16 16 16 16 16 15 14 13 12
26 26 27 28 28 28 28 29 29 29 29 29 29 29 28 27 26 25 25 25 25 24 23 22 21 19 17 18 18 17 17 18 19 19 18 18 18 18 18 18 18 20 21 20 19 19 19 18 18 18 18 18 17 17 17 17 17 18 18 18 18 18 18 17 17 16 16 16 16 16 16 16 15 14
28 28 28 28 29 30 30 31 31 31 31 30 31 30 30 29 28 27 27 27 27 27 26 25 23 21 18 18 18 18 18 18 19 20 20 19 19 20 20 19 19 20 21 21 20 20 20 21 20 19 19 18 18 17 17 17 17 17 18 18 18 19 19 18 18 18 18 17 17 17 17 17 16 16
32 32 32 31 30 30 31 31 32 33 32 32 32 32 31 31 31 30 30 30 30 29 28 27 25 23 20 19 19 19 19 20 21 21 21 20 21 22 22 21 20 20 21 21 20 20 21 22 22 22 21 20 19 19 18 17 17 16 17 18 18 19 19 19 18 18 18 18 18 18 18 18 18 17
34 35 35 35 33 31 31 32 33 35 35 35 34 34 33 32 32 32 31 31 31 31 31 29 28 26 24 23 23 22 22 23 23 23 23 23 24 24 24 24 22 21 20 21 21 21 21 23 24 23 23 22 21 21 20 19 17 16 16 17 18 18 19 19 18 18 18 18 18 19 19 19 19 19
37 37 37 37 36 35 33 33 34 35 36 37 37 37 35 34 33 32 32 32 32 32 32 31 30 28 26 26 25 25 24 24 25 25 24 24 25 25 25 25 24 22 21 21 21 21 21 22 23 24 24 23 22 21 20 19 18 17 17 17 18 18 19 19 19 18 18 18 19 19 19 20 20 21
39 39 40 40 39 38 37 36 35 36 36 37 38 39 38 36 34 33 32 32 32 33 33 32 31 29 27 27 27 26 25 25 25 25 25 25 25 25 25 25 24 22 21 20 20 20 20 21 21 22 23 23 23 22 21 19 18 18 18 18 18 19 20 20 21 20 20 21 21 21 21 22 23 23
39 40 42 43 42 40 39 38 37 37 37 38 39 39 40 38 35 33 33 32 32 33 32 31 30 28 27 27 27 27 27 27 27 26 26 26 25 25 24 24 23 21 20 20 20 19 19 20 20 20 21 22 24 25 24 22 21 21 21 21 22 22 23 23 24 23 23 23 23 23 24 24 25 26
37 40 42 43 43 42 40 39 38 36 36 38 39 38 39 39 36 34 34 33 32 32 32 31 29 28 29 29 29 28 29 28 27 27 26 25 24 24 23 23 22 21 20 21 21 20 20 21 21 21 22 23 24 26 28 28 27 26 26 26 26 26 26 26 27 27 27 26 26 26 26 27 28 28
36 36 38 41 43 43 42 41 39 37 36 37 38 38 38 39 38 36 34 33 32 32 32 32 31 31 31 31 31 30 29 28 27 26 25 24 24 23 23 22 21 20 20 21 22 23 23 24 25 25 25 26 26 27 29 30 30 31 30 29 28 28 28 28 29 29 30 30 30 30 30 30 30 31
31 29 30 33 34 36 38 39 38 37 35 37 40 40 38 38 38 37 34 33 32 33 33 33 33 33 34 33 32 31 29 28 27 26 25 25 25 25 25 24 23 23 23 23 24 25 26 27 27 28 28 28 28 28 29 29 30 32 33 32 31 30 30 30 30 31 32 32 33 34 34 34 34 34
24 25 28 28 27 26 29 32 33 34 36 39 41 41 39 38 38 37 35 34 34 34 35 35 35 36 36 35 33 32 30 29 28 27 27 27 27 28 28 28 27 27 27 27 27 28 29 29 29 29 30 30 29 29 30 30 30 31 33 34 35 34 33 33 33 33 34 35 35 36 36 37 38 38
22 28 31 32 30 28 29 31 31 32 35 38 39 39 38 38 38 37 37 36 36 36 37 36 36 37 36 34 33 33 32 31 29 29 28 28 28 30 31 31 31 31 30 30 30 30 30 30 30 31 31 31 31 31 31 32 32 32 32 34 36 37 37 36 36 36 37 37 38 38 39 39 39 40
30 32 32 32 32 30 30 32 32 32 33 35 36 37 37 36 35 35 34 34 36 37 37 35 35 35 34 33 33 33 32 31 29 29 29 30 31 32 33 33 33 33 33 32 32 32 31 32 32 32 32 33 33 33 33 34 34 34 34 34 35 37 38 38 39 39 39 40 41 41 42 42 43 43
35 34 33 32 31 29 29 30 30 30 31 33 35 36 35 33 30 30 31 34 38 39 39 37 36 35 34 34 33 32 31 30 30 31 31 32 33 34 35 35 36 36 35 35 35 34 35 35 35 35 36 36 37 37 37 37 37 38 38 38 38 38 39 40 41 41 42 42 43 44 45 46 47 47
35 34 34 33 31 30 30 30 29 29 29 31 33 35 33 29 27 29 34 38 42 43 43 41 39 35 34 34 33 33 32 32 32 33 33 34 35 36 37 38 39 39 39 38 38 38 38 38 38 39 39 39 39 40 40 41 41 41 42 42 42 42 42 42 43 44 44 45 45 46 48 49 50 51
36 36 36 36 35 34 32 31 30 30 30 30 32 33 32 30 30 34 37 38 40 41 40 38 35 33 33 34 34 35 35 35 35 36 36 37 38 39 40 40 41 42 42 41 41 41 40 40 41 41 42 42 42 42 43 44 44 44 45 45 45 46 46 46 47 48 48 48 48 49 50 51 53 53
38 38 37 37 38 38 36 34 32 32 33 33 33 34 35 33 34 36 37 36 37 37 35 34 34 35 36 37 38 38 39 39 39 40 40 41 41 42 43 43 43 44 44 43 43 43 43 43 43 44 45 45 46 46 47 47 47 48 49 49 50 50 50 51 51 52 52 52 52 52 52 53 54 55
39 38 37 35 35 36 36 35 33 33 34 34 34 35 36 37 37 39 39 38 38 37 37 38 39 39 40 41 41 42 42 42 43 43 44 44 44 45 45 45 46 46 46 46 46 46 46 46 46 46 47 48 50 51 52 53 54 54 54 55 55 56 56 56 56 56 56 57 57 56 55 55 55 56
41 40 38 36 35 35 35 35 35 35 36 37 37 36 37 38 38 39 40 40 40 40 41 41 42 42 43 43 44 44 44 45 45 46 46 47 47 48 48 49 49 49 49 49 49 49 49 49 49 50 50 51 52 53 55 57 59 60 60 59 60 60 60 60 60 61 61 61 61 60 59 58 58 58
43 43 41 39 38 38 38 39 39 38 39 41 42 43 43 43 43 43 42 42 42 42 42 42 43 44 44 45 46 47 47 48 48 49 50 50 51 52 52 53 53 53 53 53 53 53 53 54 54 55 55 55 56 56 57 59 61 63 64 63 63 63 63 62 62 62 62 62 62 62 62 61 61 61
44 44 43 42 41 41 42 42 42 42 41 41 43 45 47 49 49 47 45 43 42 42 43 45 46 47 48 49 50 51 51 52 53 53 54 54 54 54 55 55 55 56 56 56 57 57 58 58 59 60 61 61 61 61 60 60 62 64 65 65 64 64 63 63 63 62 62 62 62 63 63 63 63 63
47 46 45 44 44 44 44 44 45 45 44 44 45 46 48 50 50 49 47 46 46 48 50 50 51 51 52 53 54 54 55 55 56 56 56 56 56 56 57 57 57 58 58 59 60 61 62 63 64 64 65 65 65 64 63 62 62 63 64 64 64 64 64 64 64 64 64 64 64 64 64 65 65 66
51 50 49 48 47 47 47 47 48 49 48 47 47 47 49 50 52 52 52 53 53 53 54 54 54 54 55 56 56 57 57 57 58 58 58 58 58 58 59 59 60 60 61 62 64 65 66 66 67 67 67 66 66 66 65 65 64 64 65 65 66 66 66 66 66 66 67 67 67 67 67 68 68 68
55 55 54 53 52 52 51 51 51 52 52 51 51 51 51 53 54 56 57 57 56 55 55 55 55 55 56 57 58 59 59 60 60 60 61 61 61 62 62 63 63 64 65 66 67 67 67 68 68 68 68 67 67 67 67 67 67 67 67 67 68 68 68 68 69 69 70 70 71 71 71 71 71 72
59 58 58 57 57 56 56 55 55 55 55 55 55 55 55 56 57 58 58 59 58 58 57 57 57 57 58 59 60 61 62 62 63 63 64 64 65 65 66 67 67 67 68 68 68 68 68 68 68 68 69 69 69 69 69 68 68 68 68 68 69 70 71 71 72 72 73 73 73 73 73 74 74 74
62 61 61 61 60 60 60 60 60 60 60 59 59 59 59 59 59 59 60 60 60 60 60 60 60 61 61 62 63 64 65 65 66 66 67 68 68 68 69 69 69 70 70 70 70 70 70 70 70 70 71 71 71 71 70 70 70 70 70 70 71 72 72 73 74 74 75 75 75 75 76 76 76 77
62 63 63 63 63 63 64 63 63 63 63 63 63 62 62 62 62 62 62 62 63 63 63 63 64 64 65 65 66 66 66 67 67 68 68 69 69 70 70 70 71 71 71 71 71 71 72 72 72 72 72 72 72 72 72 72 72 72 73 73 73 74 74 74 75 75 76 77 78 78 79 79 79 80
63 63 64 64 64 65 65 65 65 65 64 64 64 64 64 64 64 64 64 64 64 64 65 65 65 66 66 66 67 67 67 68 68 69 69 70 70 71 71 71 72 72 72 72 72 72 72 73 73 73 73 73 73 73 74 74 74 75 75 75 75 75 75 76 76 76 77 78 79 80 80 80 81 81
Wind_Direction
235 239 248 256 262 266 267 272 278 282 288 294 298 301 304 308 311 316 323 328 331 334 340 346 348 350 355 360 3 7 9 6 0 354 349 346 346 347 350 354 355 353 350 345 343 346 351 357 1 2 2 1 7 13 11 12 19 19 18 24 27 27 26 26 29 34 36 38 44 49 50 53 60 65
233 237 243 252 260 265 267 271 276 278 282 288 292 297 302 304 306 312 317 321 322 316 315 325 332 332 337 343 349 355 358 357 357 358 355 352 352 354 355 357 356 355 352 346 343 349 357 1 2 4 3 360 6 11 7 9 17 19 18 20 26 28 28 27 28 32 37 39 40 45 51 53 56 62
237 239 241 244 252 257 261 266 273 277 281 285 290 294 296 297 302 309 311 310 308 304 305 314 321 322 324 330 338 341 341 346 355 360 358 356 357 358 358 359 358 356 353 349 348 354 1 2 2 4 358 354 3 6 2 5 13 18 19 17 20 27 29 28 28 30 33 38 41 42 45 51 54 57
243 244 243 243 246 249 253 261 270 277 280 284 287 288 288 290 295 299 300 301 300 301 306 311 316 319 322 327 331 333 334 342 353 356 355 356 359 360 1 1 357 353 352 352 353 356 1 2 1 1 354 350 359 1 357 2 8 12 18 16 15 22 27 27 27 30 31 34 38 42 44 46 50 55
252 251 252 253 254 253 254 257 263 270 273 277 282 286 288 290 291 292 294 297 299 303 308 311 314 317 321 324 327 330 335 341 345 349 351 354 357 358 1 359 354 352 352 353 355 356 358 360 358 357 354 352 356 357 356 359 3 6 11 13 12 15 22 25 25 27 30 31 32 37 42 44 46 49
264 262 263 265 264 261 259 257 257 258 259 262 269 275 280 285 290 294 297 300 303 309 311 311 312 314 317 318 320 327 333 335 339 345 349 352 354 354 354 351 350 351 349 348 352 355 355 357 357 357 358 357 356 356 355 357 359 1 4 7 8 10 14 20 22 23 25 28 29 30 34 39 43 45
262 260 260 261 262 262 263 263 263 262 259 259 261 266 271 279 285 288 290 293 299 304 306 308 310 311 312 312 315 322 326 326 334 341 345 348 350 349 347 344 347 349 343 340 346 351 352 353 354 356 357 354 352 352 352 352 355 359 1 0 2 6 11 14 16 18 20 22 25 27 27 29 34 40
254 253 255 258 263 266 268 270 270 268 267 267 270 272 274 274 274 274 278 284 288 291 294 300 303 303 304 308 311 314 317 322 329 333 337 339 340 344 344 339 341 344 338 336 340 343 343 343 344 346 347 343 340 341 343 346 350 356 358 356 356 360 7 12 12 12 14 15 17 21 23 23 24 27
255 255 255 256 258 260 262 266 267 268 270 272 274 274 272 269 266 268 275 282 286 288 289 292 293 294 298 302 305 308 313 318 322 324 326 326 328 338 338 330 333 340 337 333 334 334 333 330 331 333 333 331 330 331 334 339 343 348 351 352 353 354 0 8 9 7 7 7 8 11 15 18 19 18
258 259 259 258 258 257 259 261 263 266 269 271 271 272 272 272 272 273 278 283 286 288 290 290 287 288 294 297 299 304 310 314 314 313 313 314 320 332 329 321 326 335 332 328 329 330 328 323 322 324 323 323 322 323 327 331 334 339 343 346 350 351 354 0 4 3 2 0 360 1 2 6 10 12
259 261 262 261 260 259 261 262 263 264 267 269 270 271 273 275 277 281 284 286 287 287 288 288 286 286 290 293 296 299 301 303 305 306 307 308 313 323 321 315 317 325 326 324 325 326 326 322 320 320 321 321 320 319 321 324 326 330 333 337 341 344 349 354 357 359 357 355 354 353 352 352 354 359
259 260 262 263 262 261 262 265 267 267 267 269 269 270 274 277 281 285 287 288 289 289 288 286 284 284 285 287 290 293 293 295 297 300 304 307 309 314 315 310 310 316 322 321 319 320 321 320 318 318 319 319 316 314 317 319 320 322 324 328 331 332 338 345 351 352 352 351 349 348 347 345 343 343
258 260 263 264 264 263 264 266 267 269 270 271 271 271 274 278 281 284 287 289 290 289 288 287 286 284 283 283 285 287 290 293 294 296 298 301 305 310 314 311 309 313 319 318 315 317 318 317 317 319 319 316 312 313 315 317 316 317 319 321 322 324 329 335 341 343 345 346 346 344 343 341 340 337
263 264 265 267 267 265 265 265 265 267 270 272 271 272 274 277 281 284 286 289 290 289 289 288 288 287 286 285 286 287 289 292 293 294 295 298 302 308 312 311 307 308 313 314 313 314 316 317 318 319 319 316 314 315 317 316 316 316 316 317 319 322 325 328 332 334 335 337 339 338 336 335 334 333
270 270 269 270 271 270 269 268 267 266 268 270 270 271 272 276 278 280 281 283 285 286 286 286 286 287 286 285 288 290 292 293 293 293 295 297 301 307 311 310 306 304 306 308 308 309 311 313 315 316 316 315 316 317 317 316 316 316 316 316 317 319 322 324 326 327 327 329 330 329 328 326 324 325
275 276 275 274 274 274 273 272 271 269 269 269 270 271 273 275 276 275 275 276 278 280 282 283 283 283 283 284 285 288 290 292 293 293 294 295 296 300 303 304 304 303 303 304 304 304 305 307 308 309 310 312 313 314 314 315 316 317 317 317 317 317 318 320 321 323 324 324 323 322 320 317 315 315
277 278 278 277 276 275 275 274 274 273 271 270 270 270 272 273 274 274 273 274 275 276 277 279 279 278 280 283 285 288 290 291 291 291 292 291 292 293 293 294 297 298 298 299 299 299 300 301 302 302 303 305 306 306 307 310 312 314 315 316 316 316 316 317 319 319 319 318 317 316 315 314 311 309
276 278 279 279 278 275 275 275 274 273 273 272 271 270 270 271 271 273 275 275 275 274 273 274 276 276 279 283 286 288 288 288 288 289 289 289 288 288 287 288 290 292 293 295 296 297 298 298 298 298 298 298 299 299 301 303 305 308 311 313 314 314 314 314 314 313 311 310 311 312 312 312 310 308
273 275 277 278 277 276 274 274 274 273 273 273 273 272 271 270 269 270 272 274 274 273 271 271 272 274 277 281 284 286 285 284 284 286 287 288 287 285 285 285 286 287 290 293 295 297 299 299 298 297 297 297 297 297 298 299 301 305 308 309 309 309 309 309 308 308 308 309 309 309 309 308 307 307
274 274 275 275 276 276 276 275 275 273 272 271 271 271 270 269 268 267 269 271 271 271 270 270 270 272 275 279 281 283 284 284 284 285 287 288 286 285 285 285 284 284 287 290 292 295 297 297 297 297 297 297 297 297 297 298 301 304 305 304 303 303 303 304 305 306 307 307 307 307 306 305 304 304
276 275 274 273 274 275 275 276 276 274 273 271 270 270 270 269 267 267 267 267 269 269 270 270 270 270 272 276 277 278 281 283 283 284 284 284 284 284 284 284 284 285 286 287 289 290 291 292 293 294 295 295 296 296 297 299 301 303 301 299 298 298 299 301 302 303 303 303 304 304 305 306 306 306
275 275 273 271 271 271 270 271 273 274 274 273 272 270 270 270 269 268 267 266 266 267 269 269 269 269 270 272 273 274 277 280 281 282 282 282 282 282 282 283 283 283 284 285 285 286 286 287 289 291 292 293 294 294 295 297 300 300 297 295 295 295 296 297 299 300 300 300 301 302 303 305 306 307
273 272 271 269 269 268 267 267 269 273 275 276 276 274 271 269 269 270 269 268 267 267 267 268 268 268 268 268 269 272 274 275 277 279 280 279 279 280 281 281 280 281 282 282 282 283 284 284 286 288 292 294 295 294 292 292 293 292 291 290 291 292 294 295 296 297 298 299 300 300 301 301 302 302
271 268 266 266 266 266 265 264 266 270 274 277 278 278 274 269 267 268 268 268 267 267 268 268 268 267 266 266 268 271 272 274 275 277 277 276 276 277 278 279 280 281 281 281 281 282 283 282 283 285 289 292 295 295 294 294 293 292 292 292 292 293 293 294 295 295 296 296 296 296 296 296 296 296
270 267 264 262 261 261 264 265 266 266 269 273 276 278 276 270 264 262 264 265 265 267 268 268 267 266 266 267 269 270 271 272 272 273 274 274 275 275 275 276 277 278 279 279 280 281 281 281 282 285 287 289 290 292 294 295 295 294 293 293 294 295 295 296 296 296 296 296 295 294 293 292 291 291
269 267 265 264 262 262 263 264 263 262 265 270 273 273 274 271 265 259 259 262 264 265 266 266 266 266 267 269 270 269 268 267 267 267 269 270 271 271 272 273 273 273 273 274 275 275 275 276 278 281 284 286 287 289 290 292 293 293 292 292 292 293 293 295 296 297 297 296 296 294 293 291 290 289
272 274 273 271 268 266 265 265 265 266 268 270 268 267 269 270 265 258 256 258 261 262 264 265 265 267 268 269 268 265 261 260 261 263 264 266 267 268 269 269 270 270 269 270 272 273 273 273 274 277 280 282 284 284 285 286 288 290 291 291 291 291 291 291 292 293 293 293 293 293 293 293 292 292
288 282 277 276 274 269 268 270 271 271 269 267 266 265 265 266 263 258 254 254 256 259 262 264 265 266 266 265 264 261 258 258 260 262 264 265 267 268 269 270 270 270 269 269 269 270 271 272 273 275 277 278 279 279 280 281 282 284 286 289 290 291 291 290 290 290 290 290 290 291 291 291 291 292
267 259 260 270 276 273 269 269 269 269 267 265 266 265 265 264 262 257 254 255 257 260 262 265 267 265 262 259 257 257 258 260 262 263 264 266 267 269 270 270 271 271 271 270 270 270 271 273 273 274 275 275 275 275 275 277 278 279 280 283 286 288 289 289 289 289 289 289 289 289 289 288 289 289
256 257 261 271 277 277 273 270 269 268 266 266 267 266 264 263 262 260 258 260 262 263 264 264 262 259 256 255 255 255 257 258 259 260 262 264 265 267 268 269 270 271 271 272 273 274 274 274 274 274 274 274 274 274 274 275 275 276 276 276 278 280 283 284 285 286 286 287 287 288 288 288 288 287
264 267 270 272 275 278 276 272 270 270 268 265 264 264 262 260 261 262 260 258 256 256 256 253 248 246 248 251 253 255 256 257 258 258 260 262 265 267 269 270 271 272 273 274 275 275 275 275 275 275 275 275 275 275 275 275 275 276 276 275 275 275 276 278 280 281 282 283 285 285 286 286 286 286
268 269 270 271 273 277 278 274 271 270 268 264 262 260 259 257 254 254 255 254 252 253 251 246 241 242 247 251 254 256 258 259 260 261 262 265 267 269 270 272 273 275 276 276 276 276 277 277 277 277 277 277 277 277 276 276 275 275 275 275 275 275 276 276 277 278 279 280 281 282 283 283 284 284
274 274 273 273 273 275 278 277 274 271 267 264 261 258 255 253 250 249 251 251 250 249 247 244 243 246 251 254 256 259 260 262 263 265 267 268 269 270 272 273 275 276 277 278 279 279 279 280 280 280 280 279 278 277 277 277 277 277 277 277 277 278 278 278 278 279 279 279 280 280 281 281 282 282
276 276 276 275 275 275 274 274 275 274 269 264 259 255 252 251 249 247 247 248 247 246 246 246 248 250 253 255 257 260 262 265 267 268 269 270 271 273 274 275 276 277 278 279 280 281 281 282 282 282 282 282 281 281 280 280 280 280 280 281 281 281 281 281 281 281 281 280 280 280 280 281 281 281
274 274 275 276 276 275 273 270 270 269 265 262 259 254 249 246 245 245 245 247 248 249 250 251 252 253 254 257 259 261 264 267 269 270 271 272 273 275 276 277 277 278 279 280 281 281 281 282 282 283 283 284 285 285 285 285 285 284 284 284 284 284 284 283 283 283 283 282 282 281 281 280 280 280
272 272 273 272 271 270 270 269 267 264 263 263 262 258 254 251 250 251 252 254 254 255 255 256 257 258 259 261 263 266 268 269 271 272 273 274 275 276 277 277 278 279 280 280 281 281 282 282 282 282 282 283 284 285 286 287 287 287 286 286 286 286 286 286 286 286 285 285 285 285 284 284 283 282
271 272 272 271 269 267 267 268 266 264 263 263 262 262 261 261 260 260 261 261 261 262 262 262 263 264 265 267 268 269 270 271 272 273 274 275 276 276 277 278 279 279 280 280 281 281 282 282 282 282 282 282 282 283 284 285 286 286 286 286 286 286 286 286 286 286 286 286 286 286 286 286 285 286
267 268 268 268 268 267 267 267 267 265 263 261 261 261 262 263 263 263 262 260 261 262 264 266 266 267 269 269 270 270 271 272 272 273 273 274 275 275 276 277 278 279 280 280 281 282 282 282 282 282 282 282 282 282 282 283 284 285 285 286 286 286 287 287 287 287 287 287 286 286 286 286 286 286
264 264 264 264 265 265 265 266 266 265 263 262 261 261 261 261 260 259 259 260 263 266 268 269 269 269 270 270 270 270 270 270 271 271 272 272 273 274 275 276 277 278 279 280 280 281 281 281 282 282 282 282 282 282 282 282 283 284 284 285 285 286 286 286 286 286 286 286 285 285 285 286 286 286
261 261 261 261 261 261 262 262 263 263 264 263 261 260 260 261 260 260 262 265 268 270 270 270 270 269 269 269 269 269 270 270 270 271 271 272 273 273 274 275 276 277 278 278 279 279 280 281 281 282 282 282 283 283 283 283 283 283 284 284 284 284 284 284 284 284 284 284 283 283 283 283 283 283
261 261 261 261 260 260 260 260 260 261 263 263 263 261 261 261 262 263 265 268 269 270 270 269 269 268 268 268 269 269 270 270 271 272 272 273 274 274 275 275 276 276 277 277 278 279 279 280 280 281 281 282 282 282 282 282 282 283 283 283 283 283 283 283 283 283 283 282 282 282 282 282 282 282
261 261 261 261 261 261 261 261 261 261 262 263 264 264 263 263 264 265 266 268 269 269 269 269 269 269 269 269 269 269 270 271 271 272 273 273 274 274 275 275 276 276 277 277 277 278 278 279 279 280 280 281 281 281 281 282 282 282 282 282 283 283 284 284 284 284 284 283 283 283 283 283 282 282
260 260 260 260 261 261 262 262 263 263 263 263 263 263 264 265 265 266 267 268 268 269 269 269 269 269 269 269 269 269 270 270 271 272 272 273 274 274 275 276 276 277 277 278 278 279 279 280 280 280 281 281 281 282 282 282 282 283 283 283 284 284 285 285 285 285 285 285 285 285 285 284 283 283
261 260 260 260 260 260 261 261 262 262 262 262 263 263 263 264 264 265 265 265 266 267 267 267 268 268 268 269 269 269 270 270 270 270 271 272 273 273 274 275 276 276 277 278 278 279 279 280 280 280 281 281 281 282 282 283 283 283 284 284 284 285 285 285 285 286 286 286 286 286 286 286 286 286
263 262 262 262 261 261 261 261 261 261 261 262 262 262 263 264 264 264 264 264 264 265 266 266 267 268 268 269 269 270 270 270 271 271 272 272 273 274 274 275 276 276 277 277 278 278 279 279 280 280 281 281 282 282 283 283 284 284 285 285 285 285 285 285 286 286 286 287 287 287 287 288 288 288
Height
5950 5950 5950 5950 5950 5949 5949 5949 5948 5948 5948 5947 5947 5947 5946 5946 5946 5945 5945 5945 5944 5943 5943 5943 5942 5942 5941 5941 5940 5940 5939 5939 5939 5938 5938 5936 5935 5934 5933 5932 5931 5930 5929 5927 5926 5925 5924 5923 5922 5922 5921 5920 5919 5918 5917 5916 5914 5912 5911 5909 5907 5905 5903 5901 5900 5898 5896 5895 5894 5892 5891 5890 5889 5887
5950 5950 5950 5950 5950 5949 5949 5948 5948 5948 5948 5947 5947 5946 5946 5946 5945 5945 5944 5944 5944 5943 5943 5942 5942 5941 5940 5940 5939 5939 5939 5939 5938 5938 5937 5936 5935 5934 5932 5931 5930 5929 5928 5927 5926 5925 5924 5923 5922 5922 5921 5920 5919 5918 5917 5916 5914 5913 5911 5910 5908 5906 5904 5903 5901 5900 5898 5896 5895 5894 5893 5892 5891 5890
5950 5950 5950 5950 5949 5948 5948 5948 5948 5948 5947 5947 5947 5946 5946 5945 5945 5945 5944 5944 5944 5943 5943 5942 5941 5940 5940 5939 5939 5938 5938 5938 5938 5937 5936 5935 5934 5933 5932 5931 5930 5929 5928 5927 5925 5924 5924 5923 5922 5921 5921 5920 5919 5918 5918 5917 5915 5913 5912 5911 5909 5907 5906 5904 5903 5901 5899 5898 5897 5896 5895 5894 5893 5892
5949 5949 5949 5949 5948 5948 5947 5947 5947 5947 5947 5947 5947 5946 5946 5945 5945 5945 5944 5944 5944 5943 5942 5941 5940 5940 5939 5939 5938 5938 5937 5937 5937 5936 5935 5934 5933 5932 5931 5930 5929 5928 5927 5926 5925 5924 5924 5923 5922 5921 5921 5920 5919 5919 5918 5917 5915 5914 5913 5911 5910 5908 5907 5905 5904 5903 5901 5900 5898 5897 5896 5895 5894 5894
5948 5948 5947 5947 5947 5947 5946 5946 5946 5946 5946 5946 5946 5946 5946 5945 5945 5945 5944 5944 5943 5942 5942 5941 5940 5939 5939 5939 5938 5937 5937 5937 5936 5935 5935 5934 5933 5932 5931 5930 5929 5927 5926 5925 5924 5923 5923 5923 5922 5922 5921 5920 5919 5919 5918 5917 5916 5915 5913 5912 5911 5910 5908 5907 5905 5904 5903 5901 5900 5899 5897 5897 5896 5895
5947 5947 5947 5946 5946 5946 5945 5945 5945 5945 5945 5944 5944 5944 5945 5945 5944 5944 5943 5943 5942 5942 5941 5941 5940 5940 5939 5939 5938 5937 5937 5936 5936 5935 5934 5933 5933 5932 5931 5930 5928 5927 5925 5924 5923 5923 5922 5922 5922 5921 5921 5920 5919 5919 5918 5917 5916 5915 5914 5913 5912 5911 5909 5908 5907 5905 5904 5903 5901 5900 5899 5898 5897 5896
5946 5946 5946 5945 5945 5945 5944 5944 5944 5944 5944 5944 5944 5943 5943 5943 5943 5943 5942 5942 5942 5941 5941 5941 5940 5939 5939 5938 5937 5937 5937 5936 5935 5934 5933 5932 5932 5932 5931 5929 5928 5927 5925 5924 5923 5923 5922 5922 5921 5921 5920 5920 5919 5918 5918 5917 5916 5915 5914 5913 5912 5911 5910 5908 5907 5906 5905 5904 5903 5902 5900 5899 5898 5897
5945 5945 5945 5945 5944 5944 5944 5944 5944 5944 5943 5943 5943 5943 5942 5942 5942 5941 5941 5941 5940 5940 5940 5940 5939 5939 5938 5938 5937 5936 5936 5935 5934 5933 5932 5932 5931 5931 5930 5928 5927 5927 5925 5924 5923 5923 5922 5921 5920 5920 5919 5919 5918 5918 5917 5916 5915 5914 5914 5913 5912 5911 5911 5909 5908 5907 5906 5905 5904 5903 5902 5900 5899 5898
5944 5944 5944 5944 5944 5944 5944 5944 5943 5943 5943 5943 5942 5942 5942 5942 5941 5940 5940 5940 5939 5939 5939 5938 5938 5937 5937 5937 5936 5935 5935 5934 5934 5933 5932 5931 5930 5930 5929 5928 5927 5926 5925 5924 5923 5923 5922 5921 5920 5919 5919 5918 5918 5917 5916 5915 5914 5913 5913 5912 5912 5911 5910 5909 5908 5907 5906 5906 5905 5904 5903 5902 5900 5899
5943 5943 5943 5943 5943 5943 5943 5943 5943 5942 5942 5942 5942 5942 5941 5941 5940 5940 5940 5939 5939 5938 5938 5937 5937 5936 5936 5935 5935 5935 5934 5933 5932 5932 5931 5930 5930 5929 5928 5926 5926 5926 5925 5924 5923 5923 5922 5921 5920 5919 5918 5918 5917 5916 5915 5914 5913 5912 5912 5911 5911 5910 5910 5909 5908 5907 5906 5905 5905 5904 5903 5902 5901 5900
5942 5942 5941 5941 5941 5941 5941 5941 5941 5941 5941 5940 5940 5940 5940 5939 5939 5939 5938 5938 5937 5937 5936 5936 5936 5935 5935 5934 5934 5934 5933 5932 5931 5930 5930 5929 5929 5929 5927 5925 5925 5925 5924 5923 5922 5922 5921 5920 5919 5918 5918 5917 5916 5915 5914 5913 5912 5911 5911 5910 5910 5909 5909 5908 5907 5907 5906 5905 5904 5904 5903 5902 5902 5901
5940 5939 5939 5939 5940 5940 5940 5940 5939 5939 5939 5938 5938 5938 5937 5937 5937 5937 5936 5936 5935 5935 5935 5935 5934 5933 5933 5933 5933 5932 5932 5931 5930 5929 5928 5926 5926 5927 5927 5925 5923 5923 5923 5922 5921 5921 5920 5920 5919 5918 5917 5916 5915 5914 5913 5912 5911 5911 5910 5910 5909 5908 5908 5907 5906 5906 5905 5904 5903 5903 5902 5902 5901 5901
5937 5937 5937 5937 5937 5937 5938 5938 5937 5937 5937 5936 5936 5936 5935 5935 5935 5935 5935 5934 5934 5934 5934 5933 5933 5932 5932 5931 5931 5931 5930 5930 5929 5928 5927 5925 5924 5924 5924 5923 5922 5921 5922 5921 5920 5920 5919 5919 5918 5917 5916 5915 5914 5913 5912 5912 5911 5910 5909 5908 5908 5907 5906 5906 5905 5904 5904 5903 5903 5902 5901 5900 5900 5899
5934 5935 5935 5935 5935 5935 5935 5935 5935 5935 5935 5934 5934 5933 5933 5933 5933 5933 5932 5932 5932 5932 5932 5931 5931 5931 5931 5931 5930 5929 5929 5928 5927 5926 5925 5924 5923 5922 5922 5922 5921 5920 5920 5920 5919 5918 5918 5917 5916 5916 5915 5914 5913 5912 5911 5910 5910 5909 5908 5907 5907 5906 5905 5905 5904 5903 5903 5902 5901 5901 5900 5899 5898 5898
5932 5932 5932 5932 5932 5932 5932 5932 5933 5933 5933 5932 5932 5931 5931 5931 5931 5930 5930 5930 5930 5930 5929 5929 5929 5929 5929 5929 5929 5928 5927 5926 5926 5925 5924 5923 5922 5921 5921 5920 5920 5919 5919 5919 5918 5917 5916 5916 5915 5914 5913 5912 5911 5910 5910 5909 5909 5908 5907 5907 5906 5905 5904 5904 5903 5902 5902 5901 5900 5899 5898 5898 5897 5896
5929 5929 5929 5929 5929 5929 5929 5929 5930 5930 5930 5930 5929 5929 5929 5929 5929 5928 5928 5928 5927 5927 5927 5927 5927 5927 5927 5927 5927 5926 5925 5924 5923 5923 5923 5922 5921 5920 5919 5918 5918 5917 5917 5917 5916 5915 5915 5914 5913 5912 5911 5911 5910 5909 5908 5907 5907 5906 5906 5905 5905 5904 5903 5903 5902 5901 5901 5900 5899 5898 5897 5896 5896 5895
5926 5926 5926 5926 5927 5926 5926 5926 5926 5926 5927 5927 5926 5926 5926 5926 5926 5926 5925 5925 5925 5924 5924 5924 5924 5924 5924 5924 5924 5924 5923 5922 5921 5921 5921 5920 5919 5918 5918 5917 5916 5915 5915 5915 5914 5913 5913 5912 5911 5910 5910 5909 5908 5907 5906 5906 5905 5904 5904 5903 5903 5902 5902 5901 5901 5900 5900 5899 5897 5896 5896 5895 5894 5894
5924 5924 5923 5923 5923 5923 5923 5923 5923 5923 5923 5923 5923 5923 5923 5923 5924 5923 5922 5922 5922 5922 5922 5922 5921 5922 5922 5921 5921 5921 5920 5920 5919 5918 5918 5918 5917 5916 5916 5916 5915 5913 5912 5912 5912 5911 5910 5909 5909 5908 5907 5907 5906 5905 5904 5904 5903 5903 5902 5902 5901 5900 5900 5899 5899 5898 5897 5896 5895 5894 5894 5893 5892 5892
5920 5920 5920 5920 5919 5919 5919 5919 5919 5919 5919 5919 5919 5920 5920 5920 5920 5920 5920 5919 5919 5919 5919 5919 5918 5919 5919 5919 5918 5918 5918 5917 5917 5916 5915 5915 5914 5913 5913 5913 5913 5911 5910 5910 5909 5908 5907 5906 5906 5905 5905 5904 5904 5903 5902 5902 5901 5901 5901 5900 5899 5898 5897 5896 5896 5895 5894 5894 5893 5892 5892 5891 5890 5890
5916 5915 5915 5916 5916 5915 5915 5915 5915 5916 5916 5916 5916 5916 5917 5917 5917 5917 5917 5916 5916 5916 5915 5915 5915 5916 5916 5916 5915 5915 5915 5915 5914 5914 5913 5913 5911 5910 5910 5910 5910 5909 5908 5907 5906 5906 5904 5903 5902 5902 5902 5901 5901 5900 5900 5899 5899 5900 5899 5898 5896 5895 5895 5894 5893 5893 5892 5891 5891 5890 5889 5888 5887 5887
5912 5912 5911 5911 5911 5911 5911 5911 5911 5911 5911 5911 5912 5912 5913 5913 5913 5913 5913 5913 5913 5912 5912 5912 5912 5913 5913 5913 5912 5912 5912 5911 5911 5911 5911 5910 5909 5907 5907 5907 5907 5907 5906 5905 5904 5903 5902 5900 5899 5899 5899 5898 5898 5897 5897 5897 5897 5897 5896 5895 5894 5893 5892 5892 5891 5891 5890 5889 5888 5887 5887 5886 5885 5884
5908 5907 5907 5906 5906 5907 5907 5907 5907 5907 5907 5907 5907 5907 5908 5909 5910 5910 5910 5910 5910 5909 5909 5909 5909 5910 5910 5910 5909 5909 5909 5908 5908 5908 5907 5907 5906 5905 5904 5904 5904 5904 5903 5902 5901 5900 5899 5898 5897 5896 5895 5895 5894 5894 5894 5894 5894 5894 5893 5892 5891 5890 5889 5889 5889 5888 5887 5887 5886 5885 5884 5883 5882 5882
5903 5903 5902 5901 5901 5902 5902 5902 5902 5902 5903 5903 5903 5903 5903 5904 5905 5906 5906 5906 5906 5906 5906 5906 5906 5907 5907 5906 5905 5905 5905 5905 5904 5904 5904 5903 5902 5902 5901 5901 5901 5901 5900 5899 5898 5897 5896 5895 5894 5893 5892 5891 5891 5890 5890 5891 5891 5891 5890 5889 5888 5887 5887 5886 5886 5885 5885 5884 5883 5883 5882 5881 5880 5879
5898 5898 5897 5896 5896 5896 5896 5896 5897 5898 5898 5899 5899 5899 5899 5899 5901 5902 5902 5902 5902 5902 5902 5902 5903 5903 5903 5903 5902 5902 5901 5901 5901 5900 5900 5899 5898 5898 5898 5898 5898 5898 5898 5896 5895 5894 5893 5893 5892 5891 5890 5889 5888 5886 5886 5887 5888 5887 5886 5886 5885 5884 5884 5883 5882 5882 5882 5881 5881 5880 5879 5878 5877 5876
5893 5892 5892 5891 5891 5891 5890 5891 5892 5893 5894 5894 5894 5895 5895 5895 5895 5896 5897 5898 5898 5899 5898 5899 5899 5900 5900 5899 5898 5898 5897 5897 5897 5896 5895 5895 5894 5894 5894 5894 5895 5895 5895 5893 5892 5892 5891 5890 5889 5889 5888 5887 5886 5884 5883 5883 5883 5883 5882 5882 5881 5881 5880 5879 5878 5878 5877 5877 5877 5876 5875 5874 5873 5872
5888 5887 5886 5886 5886 5886 5886 5887 5888 5889 5889 5889 5889 5890 5890 5890 5890 5891 5892 5893 5894 5895 5894 5895 5895 5896 5895 5895 5894 5894 5893 5893 5892 5892 5891 5891 5890 5890 5890 5891 5891 5892 5892 5891 5890 5889 5889 5888 5887 5887 5886 5885 5884 5883 5881 5880 5879 5878 5878 5878 5878 5878 5877 5876 5875 5874 5873 5872 5871 5871 5870 5870 5869 5868
5883 5882 5882 5881 5882 5882 5882 5882 5883 5884 5884 5884 5884 5884 5885 5885 5886 5886 5887 5889 5889 5889 5889 5890 5891 5890 5890 5890 5890 5889 5889 5889 5888 5888 5887 5887 5886 5886 5886 5887 5887 5888 5887 5887 5886 5885 5885 5884 5884 5884 5883 5882 5881 5880 5879 5878 5877 5875 5874 5873 5874 5874 5874 5873 5872 5871 5869 5868 5867 5866 5865 5864 5863 5863
5880 5881 5879 5877 5878 5878 5878 5878 5879 5879 5879 5878 5878 5879 5880 5880 5880 5881 5882 5883 5883 5884 5884 5885 5885 5885 5885 5885 5884 5884 5884 5885 5885 5884 5884 5883 5883 5882 5882 5882 5882 5882 5882 5882 5882 5881 5880 5880 5880 5880 5880 5879 5878 5877 5876 5875 5874 5873 5871 5869 5869 5869 5869 5869 5868 5867 5866 5864 5863 5862 5861 5859 5858 5858
5880 5880 5877 5874 5874 5875 5875 5874 5874 5873 5873 5873 5873 5873 5874 5875 5875 5876 5877 5878 5878 5878 5879 5880 5881 5881 5880 5880 5879 5879 5879 5880 5881 5881 5880 5879 5879 5878 5877 5877 5877 5877 5877 5877 5877 5877 5877 5876 5876 5876 5876 5875 5875 5874 5873 5871 5870 5870 5869 5867 5865 5864 5864 5864 5863 5863 5861 5860 5858 5857 5856 5855 5854 5853
5876 5876 5874 5873 5872 5871 5870 5870 5869 5869 5869 5868 5868 5868 5869 5869 5870 5871 5873 5875 5875 5875 5876 5877 5877 5875 5874 5874 5873 5874 5875 5875 5876 5876 5875 5874 5874 5873 5872 5872 5872 5872 5872 5872 5872 5872 5872 5872 5871 5871 5871 5870 5870 5869 5869 5868 5867 5866 5865 5865 5863 5862 5860 5859 5858 5858 5857 5855 5854 5852 5851 5849 5848 5847
5870 5870 5869 5869 5868 5867 5866 5865 5865 5865 5865 5864 5864 5864 5864 5865 5866 5868 5869 5870 5869 5869 5870 5871 5870 5868 5867 5867 5868 5868 5869 5870 5870 5870 5869 5869 5869 5868 5868 5867 5867 5867 5868 5868 5868 5868 5867 5867 5866 5865 5865 5864 5864 5863 5863 5863 5862 5861 5860 5859 5858 5857 5856 5855 5854 5852 5851 5850 5849 5847 5845 5843 5842 5841
5864 5864 5863 5863 5863 5862 5861 5861 5861 5860 5860 5860 5859 5859 5859 5860 5862 5864 5863 5862 5861 5861 5862 5862 5862 5862 5862 5862 5862 5863 5864 5864 5864 5864 5864 5864 5864 5863 5863 5862 5862 5862 5862 5862 5863 5862 5862 5861 5860 5859 5859 5858 5858 5857 5856 5856 5855 5854 5853 5852 5852 5851 5851 5850 5848 5847 5846 5845 5844 5842 5840 5838 5836 5834
5858 5858 5858 5858 5858 5857 5857 5856 5856 5856 5855 5855 5855 5854 5855 5856 5858 5858 5857 5855 5855 5855 5855 5856 5856 5856 5856 5856 5857 5857 5858 5858 5858 5858 5858 5858 5858 5858 5858 5857 5857 5857 5857 5856 5856 5856 5855 5855 5854 5853 5852 5852 5851 5850 5849 5848 5848 5847 5846 5845 5845 5844 5843 5842 5841 5840 5839 5838 5837 5836 5834 5832 5830 5828
5852 5852 5851 5851 5852 5852 5852 5852 5852 5851 5851 5850 5850 5850 5850 5851 5851 5851 5850 5849 5849 5849 5850 5850 5850 5851 5851 5851 5851 5851 5852 5852 5852 5852 5852 5852 5852 5852 5852 5852 5851 5851 5851 5850 5850 5849 5849 5848 5847 5846 5845 5844 5843 5842 5842 5841 5840 5839 5838 5837 5837 5836 5835 5834 5833 5832 5831 5830 5829 5828 5827 5825 5823 5821
5847 5846 5846 5846 5846 5846 5846 5846 5847 5846 5846 5845 5845 5845 5845 5845 5844 5844 5843 5843 5843 5844 5844 5845 5845 5845 5846 5846 5846 5846 5846 5846 5846 5846 5846 5846 5846 5846 5845 5845 5845 5845 5844 5844 5843 5843 5842 5842 5841 5840 5838 5836 5835 5833 5832 5830 5830 5829 5829 5828 5827 5827 5826 5825 5824 5823 5821 5820 5819 5819 5819 5818 5815 5813
5840 5840 5840 5841 5841 5841 5840 5841 5841 5841 5841 5841 5840 5840 5840 5839 5839 5839 5839 5839 5839 5839 5839 5839 5839 5840 5840 5841 5841 5841 5840 5840 5840 5840 5840 5840 5839 5839 5838 5838 5837 5837 5837 5836 5836 5835 5835 5834 5834 5833 5832 5831 5829 5827 5824 5822 5819 5819 5819 5819 5818 5817 5816 5815 5814 5812 5811 5810 5809 5808 5808 5807 5806 5803
5834 5834 5834 5835 5835 5835 5835 5835 5835 5835 5835 5834 5834 5834 5834 5834 5833 5833 5833 5833 5833 5833 5833 5834 5834 5834 5835 5835 5835 5835 5834 5834 5834 5834 5833 5833 5832 5832 5831 5830 5830 5829 5829 5828 5828 5827 5827 5826 5825 5825 5824 5823 5823 5822 5820 5817 5813 5810 5809 5809 5809 5807 5807 5806 5804 5803 5801 5800 5798 5797 5796 5796 5795 5793
5827 5827 5827 5828 5828 5828 5828 5828 5828 5828 5828 5828 5828 5828 5828 5827 5827 5827 5827 5827 5827 5827 5827 5828 5828 5828 5828 5828 5828 5828 5828 5828 5827 5827 5826 5826 5825 5824 5823 5823 5822 5821 5820 5820 5819 5818 5818 5817 5816 5815 5814 5814 5813 5813 5813 5811 5808 5803 5801 5800 5799 5798 5797 5796 5794 5794 5792 5790 5789 5787 5786 5785 5784 5783
5819 5819 5820 5821 5821 5822 5822 5822 5821 5821 5821 5822 5822 5821 5821 5821 5821 5821 5821 5821 5821 5821 5821 5821 5821 5821 5821 5821 5821 5821 5821 5821 5820 5819 5819 5818 5817 5817 5816 5815 5815 5814 5813 5812 5811 5810 5809 5808 5807 5806 5805 5804 5803 5802 5802 5802 5800 5797 5794 5792 5790 5789 5788 5786 5785 5784 5782 5781 5780 5778 5777 5775 5774 5772
5811 5811 5812 5813 5814 5814 5814 5814 5814 5814 5814 5814 5815 5815 5815 5815 5814 5814 5814 5814 5814 5814 5814 5814 5814 5814 5813 5813 5813 5813 5812 5812 5812 5811 5811 5810 5809 5809 5808 5808 5807 5806 5805 5804 5802 5801 5800 5799 5797 5796 5795 5794 5793 5792 5791 5791 5790 5788 5786 5783 5781 5779 5778 5777 5776 5775 5773 5771 5770 5769 5768 5767 5765 5763
5803 5804 5804 5804 5805 5805 5806 5806 5807 5807 5806 5807 5807 5807 5807 5807 5807 5807 5807 5807 5807 5807 5806 5806 5806 5806 5805 5805 5805 5804 5804 5803 5803 5802 5802 5801 5801 5800 5800 5799 5798 5797 5796 5795 5794 5793 5791 5790 5788 5787 5786 5785 5784 5782 5781 5781 5780 5778 5776 5774 5771 5769 5768 5767 5765 5764 5762 5760 5759 5758 5757 5756 5754 5752
5795 5795 5796 5796 5796 5797 5797 5798 5798 5799 5799 5799 5799 5799 5800 5800 5799 5799 5799 5799 5799 5799 5798 5798 5798 5797 5797 5797 5796 5796 5795 5795 5794 5794 5793 5793 5792 5791 5790 5789 5789 5788 5787 5786 5785 5784 5782 5781 5779 5778 5776 5775 5774 5773 5772 5771 5770 5768 5767 5764 5762 5760 5757 5755 5753 5751 5749 5748 5746 5745 5744 5743 5741 5739
5786 5787 5787 5787 5788 5788 5788 5789 5790 5790 5790 5791 5791 5791 5791 5791 5791 5791 5791 5791 5790 5790 5790 5790 5790 5789 5789 5788 5787 5787 5787 5786 5786 5785 5784 5783 5782 5781 5781 5780 5779 5777 5776 5775 5774 5773 5772 5770 5769 5767 5766 5764 5763 5762 5761 5760 5759 5757 5756 5754 5752 5750 5747 5744 5742 5739 5736 5734 5732 5731 5729 5728 5728 5726
5777 5778 5778 5778 5779 5779 5779 5780 5780 5781 5781 5781 5781 5781 5782 5782 5782 5782 5782 5782 5781 5781 5780 5780 5780 5780 5779 5779 5778 5778 5777 5777 5776 5775 5774 5773 5772 5772 5771 5770 5768 5767 5766 5765 5764 5763 5761 5760 5758 5757 5755 5754 5752 5751 5750 5749 5748 5746 5744 5743 5741 5739 5737 5735 5732 5729 5725 5722 5720 5718 5716 5713 5712 5711
5768 5768 5768 5769 5769 5769 5770 5770 5771 5771 5771 5772 5772 5772 5772 5772 5772 5772 5772 5772 5771 5771 5770 5770 5770 5769 5769 5769 5769 5768 5768 5767 5766 5765 5764 5763 5762 5762 5761 5760 5759 5757 5756 5755 5754 5753 5751 5749 5748 5746 5744 5743 5742 5740 5739 5737 5736 5734 5732 5731 5729 5728 5726 5724 5721 5719 5716 5711 5708 5706 5703 5701 5699 5697